Tomahawk, WI

7:02 PM CST on January 24, 2017 (GMT -0600)
Tomahawk

Weather History for KTKV - October, 2011

Change the Weather History Date:

Wednesday, October 19, 2011

  Actual Average (KRRL) Record (KRRL)
Temperature  
Mean Temperature 40 °F -  
Max Temperature 46 °F 50 °F 79 °F (1953)
Min Temperature 34 °F 30 °F 12 °F (1972)
Degree Days  
Heating Degree Days 25    
Moisture  
Dew Point 33 °F    
Average Humidity 76    
Maximum Humidity 92    
Minimum Humidity 53    
Precipitation  
Precipitation 0.00 in - - ()
Sea Level Pressure  
Sea Level Pressure 29.98 in    
Wind  
Wind Speed 6 mph (North)    
Max Wind Speed 17 mph    
Max Gust Speed 25 mph    
Visibility 10 miles    
Events      
Averages and records for this station are not official NWS values.
T = Trace of Precipitation, MM = Missing Value Source: NWS Daily Summary

Daily Weather History Graph

Daily Weather History Graph

Search for Another Location

Airport or City:

Trip Planner

Search our weather history database for the weather conditions in past years. The results will help you decide how hot, cold, wet, or windy it might be!

Date:

Astronomy

Oct. 19, 2011 Rise Set
Actual Time 7:20 AM CDT 6:07 PM CDT
Civil Twilight 6:50 AM CDT 6:37 PM CDT
Nautical Twilight 6:16 AM CDT 7:11 PM CDT
Astronomical Twilight 5:41 AM CDT 7:45 PM CDT
Moon 11:46 PM CDT (10/19) 1:59 PM CDT (10/19)
Length of Visible Light 11h 46m
Length of Day
10h 46m
Waning Gibbous, 54% of the Moon is Illuminated
Oct 19
Waning Gibbous
Oct 19
Last Quarter
Oct 26
New
Nov 2
First Quarter
Nov 10
Full

Hourly Weather History & Observations

Time (CDT) Temp. Windchill Dew Point Humidity Pressure Visibility Wind Dir Wind Speed Gust Speed Precip Events Conditions
12:15 AM 37.6 °F 34.0 °F 33.1 °F 84% 29.96 in 10.0 mi NNW 4.6 mph - N/A   Overcast
12:35 AM 37.4 °F 32.8 °F 33.3 °F 85% 29.96 in 10.0 mi NNW 5.8 mph - N/A   Overcast
12:55 AM 37.4 °F 34.9 °F 33.3 °F 85% 29.96 in 10.0 mi NW 3.5 mph - N/A   Overcast
1:15 AM 37.4 °F - 33.3 °F 85% 29.97 in 10.0 mi Calm Calm - N/A   Overcast
1:35 AM 36.9 °F 33.1 °F 33.3 °F 87% 29.97 in 10.0 mi North 4.6 mph - N/A   Overcast
1:55 AM 36.9 °F 34.3 °F 33.4 °F 87% 29.97 in 10.0 mi NNW 3.5 mph - N/A   Overcast
2:15 AM 36.7 °F - 33.8 °F 89% 29.97 in 10.0 mi Calm Calm - N/A   Overcast
2:35 AM 36.7 °F - 34.0 °F 90% 29.97 in 10.0 mi Calm Calm - N/A   Overcast
2:55 AM 36.5 °F 33.9 °F 34.3 °F 92% 29.97 in 10.0 mi North 3.5 mph - N/A   Overcast
3:15 AM 36.5 °F 33.9 °F 34.3 °F 92% 29.97 in 10.0 mi NNW 3.5 mph - N/A   Overcast
3:35 AM 36.5 °F 33.9 °F 34.2 °F 91% 29.97 in 10.0 mi NNW 3.5 mph - N/A   Overcast
3:55 AM 36.5 °F - 34.2 °F 91% 29.97 in 10.0 mi Calm Calm - N/A   Overcast
4:15 AM 36.5 °F - 34.2 °F 91% 29.97 in 10.0 mi Calm Calm - N/A   Overcast
4:35 AM 36.5 °F - 34.2 °F 91% 29.97 in 10.0 mi Calm Calm - N/A   Overcast
5:15 AM 36.5 °F 33.9 °F 34.0 °F 91% 29.98 in 10.0 mi North 3.5 mph - N/A   Overcast
5:35 AM 36.0 °F 32.1 °F 33.3 °F 90% 29.98 in 10.0 mi North 4.6 mph - N/A   Mostly Cloudy
5:55 AM 35.8 °F 31.9 °F 33.3 °F 91% 29.98 in 10.0 mi North 4.6 mph - N/A   Overcast
6:15 AM 35.8 °F 31.9 °F 32.4 °F 87% 29.99 in 10.0 mi North 4.6 mph - N/A   Scattered Clouds
6:35 AM 35.6 °F 30.7 °F 32.0 °F 87% 29.99 in 10.0 mi North 5.8 mph - N/A   Scattered Clouds
6:55 AM 35.4 °F 30.5 °F 31.5 °F 85% 29.99 in 10.0 mi North 5.8 mph - N/A   Scattered Clouds
7:15 AM 34.9 °F 30.8 °F 30.9 °F 85% 30.00 in 10.0 mi North 4.6 mph - N/A   Scattered Clouds
7:35 AM 34.0 °F - 30.7 °F 88% 30.00 in 10.0 mi Calm Calm - N/A   Clear
8:15 AM 34.2 °F 30.0 °F 31.8 °F 91% 30.00 in 10.0 mi NNW 4.6 mph - N/A   Clear
8:35 AM 35.6 °F 31.7 °F 32.2 °F 87% 30.00 in 10.0 mi North 4.6 mph - N/A   Clear
9:15 AM 37.8 °F 32.5 °F 32.5 °F 81% 30.01 in 10.0 mi North 6.9 mph - N/A   Mostly Cloudy
9:35 AM 38.7 °F 31.8 °F 32.2 °F 78% 30.01 in 10.0 mi North 10.4 mph 16.1 mph N/A   Overcast
9:55 AM 39.9 °F 33.4 °F 32.2 °F 74% 30.01 in 10.0 mi North 10.4 mph - N/A   Overcast
10:15 AM 41.0 °F 35.2 °F 32.2 °F 71% 30.02 in 10.0 mi North 9.2 mph - N/A   Overcast
10:35 AM 41.0 °F 34.7 °F 32.0 °F 70% 30.02 in 10.0 mi North 10.4 mph - N/A   Mostly Cloudy
10:55 AM 42.4 °F 36.5 °F 32.2 °F 67% 30.02 in 10.0 mi North 10.4 mph 18.4 mph N/A   Mostly Cloudy
11:15 AM 42.6 °F 36.3 °F 32.2 °F 67% 30.01 in 10.0 mi NNE 11.5 mph 18.4 mph N/A   Overcast
11:35 AM 42.4 °F 36.1 °F 32.0 °F 67% 30.02 in 10.0 mi NNE 11.5 mph 16.1 mph N/A   Overcast
12:35 PM 43.3 °F 37.2 °F 31.6 °F 63% 30.00 in 10.0 mi North 11.5 mph - N/A   Overcast
12:55 PM 43.7 °F 37.3 °F 31.5 °F 62% 29.99 in 10.0 mi NNE 12.7 mph 18.4 mph N/A   Overcast
1:15 PM 45.1 °F 39.1 °F 31.3 °F 58% 29.98 in 10.0 mi NNE 12.7 mph 20.7 mph N/A   Mostly Cloudy
1:35 PM 45.7 °F 38.6 °F 30.7 °F 56% 29.98 in 10.0 mi NNE 17.3 mph - N/A   Overcast
1:55 PM 45.3 °F 39.0 °F 31.6 °F 59% 29.97 in 10.0 mi North 13.8 mph 19.6 mph N/A   Scattered Clouds
2:15 PM 46.2 °F 40.5 °F 31.3 °F 56% 29.96 in 10.0 mi North 12.7 mph 23.0 mph N/A   Scattered Clouds
2:35 PM 46.0 °F 40.6 °F 31.6 °F 57% 29.96 in 10.0 mi NNE 11.5 mph 19.6 mph N/A   Mostly Cloudy
2:55 PM 45.5 °F 39.9 °F 31.5 °F 58% 29.95 in 10.0 mi NNE 11.5 mph 19.6 mph N/A   Overcast
3:15 PM 46.8 °F - 30.6 °F 53% 29.95 in 10.0 mi NNE 15.0 mph 20.7 mph N/A   Mostly Cloudy
3:35 PM 46.8 °F - 30.7 °F 54% 29.95 in 10.0 mi North 10.4 mph 25.3 mph N/A   Mostly Cloudy
3:55 PM 44.2 °F 39.7 °F 31.8 °F 62% 29.95 in 10.0 mi NNE 8.1 mph 24.2 mph N/A   Overcast
4:15 PM 44.2 °F 39.2 °F 32.0 °F 62% 29.95 in 10.0 mi NNE 9.2 mph - N/A   Overcast
4:35 PM 44.6 °F 39.2 °F 32.0 °F 61% 29.95 in 10.0 mi North 10.4 mph 20.7 mph N/A   Overcast
4:55 PM 43.7 °F 37.7 °F 33.3 °F 67% 29.95 in 10.0 mi North 11.5 mph 16.1 mph N/A   Overcast
5:15 PM 43.3 °F 36.8 °F 33.1 °F 67% 29.95 in 10.0 mi North 12.7 mph 23.0 mph N/A   Overcast
5:35 PM 43.5 °F 36.4 °F 32.5 °F 65% 29.95 in 10.0 mi North 15.0 mph 20.7 mph N/A   Overcast
5:55 PM 42.4 °F 37.0 °F 32.9 °F 69% 29.95 in 10.0 mi NNE 9.2 mph 17.3 mph N/A   Mostly Cloudy
6:15 PM 42.3 °F 36.8 °F 33.3 °F 70% 29.95 in 10.0 mi North 9.2 mph - N/A   Overcast
6:35 PM 41.7 °F 35.2 °F 34.0 °F 74% 29.95 in 10.0 mi North 11.5 mph - N/A   Light Drizzle
6:55 PM 41.7 °F 35.6 °F 33.3 °F 72% 29.96 in 10.0 mi NNE 10.4 mph 21.9 mph N/A   Overcast
7:15 PM 41.7 °F 34.4 °F 32.4 °F 69% 29.97 in 10.0 mi NNE 13.8 mph 23.0 mph N/A   Overcast
7:35 PM 41.0 °F 34.7 °F 33.1 °F 73% 29.98 in 10.0 mi NNE 10.4 mph 21.9 mph N/A   Light Drizzle
7:55 PM 39.9 °F 33.4 °F 32.7 °F 75% 29.97 in 10.0 mi NNE 10.4 mph 19.6 mph N/A   Mostly Cloudy
8:15 PM 39.6 °F 33.0 °F 32.0 °F 74% 29.97 in 10.0 mi North 10.4 mph 17.3 mph N/A   Mostly Cloudy
8:35 PM 39.4 °F 31.1 °F 32.0 °F 75% 29.96 in 10.0 mi North 15.0 mph 20.7 mph N/A   Mostly Cloudy
8:55 PM 38.7 °F 31.4 °F 31.8 °F 76% 29.95 in 10.0 mi North 11.5 mph 18.4 mph N/A   Clear
9:15 PM 37.9 °F 32.1 °F 31.8 °F 79% 29.95 in 10.0 mi North 8.1 mph - N/A   Clear
9:35 PM 37.4 °F 33.8 °F 31.8 °F 80% 29.94 in 10.0 mi NNW 4.6 mph - N/A   Clear
9:55 PM 36.9 °F 31.4 °F 32.0 °F 83% 29.92 in 10.0 mi North 6.9 mph - N/A   Clear
10:15 PM 37.2 °F 30.6 °F 31.8 °F 81% 29.92 in 10.0 mi North 9.2 mph - N/A   Scattered Clouds
10:35 PM 37.6 °F 31.0 °F 30.7 °F 76% 29.91 in 10.0 mi North 9.2 mph 17.3 mph N/A   Mostly Cloudy
11:15 PM 38.1 °F 31.2 °F 30.4 °F 74% 29.90 in 10.0 mi North 10.4 mph - N/A   Overcast
11:35 PM 38.5 °F 31.6 °F 30.2 °F 72% 29.89 in 10.0 mi North 10.4 mph 16.1 mph N/A   Overcast
11:55 PM 38.5 °F 31.1 °F 30.7 °F 74% 29.89 in 10.0 mi North 11.5 mph 17.3 mph N/A   Overcast